Location: Bluff Heights
(33.7692°N, 118.1592°W)
Time: 08:23:08
(UTC+00:00)

Tiros 1 - Pass Details

Date: 28 July 2021
Orbit: 630 x 663 km, 48.4° (Epoch: 22 September)

Event Time Altitude Azimuth Distance (km) Brightness Sun altitude
Rises 10:15:55 0° 304° (WNW) 2,933 - -28.1°
Reaches altitude 10° 10:18:18 10° 299° (WNW) 2,017 - -27.8°
Maximum altitude 10:22:48 52° 223° (SW) 779 - -27.2°
Drops below altitude 10° 10:27:16 10° 147° (SSE) 1,997 - -26.6°
Sets 10:29:37 0° 143° (SE) 2,900 - -26.3°
